www.pogodaiklimat.ru

Погода и климат >> Архив погоды >> Россия >> Еврейская автономная область >> Екатерино-Никольское


АРХИВ ПОГОДЫ в Екатерино-Никольском

Время (UTC), дата Ветер
(напр.,м/с)
 
Видим.   Явления Облачность Т
(С)
Тd
(С)
f
(%)
Тe
(С)
Тes
(С)
Комфортность P
(гПа)
Po
(гПа)
Тmin
(С)
Tmax
(С)
R
(мм)
R24
(мм)
S
(см)
12 18.05 Ю 2 20 км {ливн. осадки} 10/8 600 м
[Sc Ac trans Ci fib]
+10.6 +9.9 95 +9 +9 1009.6 1001.0
15 18.05 Ю 2 20 км 10/8 600 м
[Cb cap Ac trans]
+10.1 +9.4 95 +8 +8 1011.1 1002.4
18 18.05 штиль 0 20 км 10/5 600 м
[Sc Ac trans Ci fib]
+7.1 +6.7 97 +6 +6 1011.6 1002.8
21 18.05 Ю 3 20 км 10/8 600 м
[Cb cap Ac trans]
+8.7 +8.2 97 +6 +6 1012.0 1003.2 +7.1 2
00 19.05 Ю 1 50 км 10/8
[Sc Ac As]
+12.2 +8.4 78 +12 +12 1012.4 1003.8
03 19.05 Ю 2 50 км 10/8 600 м
[Cb cap As op]
+13.6 +9.1 74 +13 +14 1012.1 1003.5
06 19.05 В 2 20 км {ливн. осадки} 10/8 600 м
[Cb calv Ac und]
+15.0 +9.0 67 +15 +16 1008.8 1000.2
09 19.05 В 2 10 км слаб. ливневой дождь 10/8 600 м
[Cb calv Ac und]
+13.3 +10.9 85 +13 +13 1006.9 998.3 +15.1 0.0
12 19.05 СВ 4 4000 м ливневой дождь 10/10 600 м
[Cb calv]
+11.5 +10.1 91 +9 +9 1003.1 994.5
15 19.05 СВ 2
{11}
10 км слаб. ливневой дождь 10/10 600 м
[Cb calv]
+12.3 +11.7 96 +11 +11 997.9 989.4
18 19.05 ЮВ 3 20 км 10/8 600 м
[Cb calv Ac As]
+14.0 +13.6 97 +13 +13 993.9 985.4
21 19.05 ЮВ 2 10 км ливневой дождь 10/10 600 м
[Cb calv]
+13.9 +13.0 94 +13 +13 991.2 982.8 +11.1 10
00 20.05 Ю 5 10 км слаб. ливневой дождь 10/10 600 м
[Cb cap]
+14.3 +13.7 96 +13 +13 989.2 980.9
03 20.05 Ю 4
{10}
10 км слаб. ливневой дождь 10/10 600 м
[Cb cap]
+13.0 +11.2 89 +11 +11 988.9 980.5
06 20.05 ЮВ 2 20 км {ливн. осадки} 10/8 600 м
[Cb cap Ac As]
+13.2 +11.8 91 +12 +13 987.5 979.1
09 20.05 ЮЗ 3 10 км слаб. ливневой дождь 10/10 600 м
[Cb cap]
+13.1 +9.7 80 +12 +12 988.5 980.1 +15.4 9
12 20.05 ЮВ 2 20 км {ливн. осадки} 10/8 600 м
[Cb calv Ac und]
+11.5 +9.8 89 +10 +10 989.0 980.6
15 20.05 Ю 3 10 км слаб. ливневой дождь 10/10 600 м
[Cb cap]
+11.0 +9.3 89 +9 +9 989.0 980.4
18 20.05 Ю 2 20 км {ливн. осадки} 10/8 600 м
[Cb calv Ac As]
+9.1 +6.4 83 +7 +7 988.5 980.0
21 20.05 Ю 4 20 км {ливн. осадки} 10/8 600 м
[Cb calv Ac As]
+9.5 +5.6 77 +7 +7 988.6 980.1 +8.4 0.8
00 21.05 Ю 5 50 км 10/8 600 м
[Cb cap Ac As]
+11.0 +6.5 74 +8 +9 989.0 980.5
03 21.05 Ю 4 50 км 10/8 600 м
[Cb cap Ac trans Ci fib]
+11.8 +6.5 70 +10 +11 989.8 981.3
06 21.05 Ю 3 50 км 10/8 600 м
[Cb cap Ac trans Ci fib]
+13.1 +6.6 65 +12 +13 989.3 980.9
09 21.05 Ю 3 н/о н/о +13.7 +6.8 63 +13 +13 989.6 981.2 +15.0
12 21.05 ЮЗ 1 20 км {ливн. осадки} 8/6 600 м
[Cb cap Ac As Ci fib]
+7.8 +6.9 94 +7 +7 991.5 982.9
15 21.05 З 1 500 м туман 6/3 600 м
[Sc diur, vesp Ci fib]
+6.1 +5.5 96 +5 +5 991.7 983.0
18 21.05 З 1 200 м туман 4/0
[]
+6.1 +5.7 97 +5 +5 991.7 982.9
21 21.05 СЗ 1 200 м ?/? +6.4 +6.0 97 +5 +5 992.3 983.6 +4.8 0.0
00 22.05 СЗ 2 20 км {туман} 10/8 600 м
[Sc Ac und]
+8.2 +7.9 98 +6 +7 993.1 984.5
03 22.05 ЮВ 2 50 км 10/8 600 м
[Cb calv Ac trans Ci fib]
+13.0 +6.9 66 +12 +14 993.2 984.7
06 22.05 З 2 50 км 10/5 600 м
[Cb calv Ci fib]
+15.1 +7.2 59 +15 +20 998.0 985.5
09 22.05 З 2 50 км 10/8 600 м
[Cb calv Ac trans Ci fib]
+14.8 +8.2 65 +15 +15 995.5 987.1 +15.6
12 22.05 СЗ 1 20 км 10/8 600 м
[Cb calv Ac trans Ci fib]
+11.6 +8.3 80 +11 +11 998.2 989.7
15 22.05 СЗ 2 20 км 10/3 600 м
[Sc Ac trans Ci fib]
+9.3 +7.8 90 +8 +8 999.6 991.0
18 22.05 СЗ 2 20 км 8/0
[Ac trans Ci fib]
+8.3 +6.4 88 +6 +6 1001.0 992.3
21 22.05 СЗ 2 50 км 6/0
[Ac trans Ci fib]
+8.5 +6.2 85 +7 +8 1002.8 994.2 +6.9
00 23.05 СЗ 4 50 км 6/3 600 м
[Cb calv Ac trans Ci fib]
+13.7 +7.2 65 +12 +16 1003.8 995.3
03 23.05 ЮЗ 2 50 км 8/4 600 м
[Cu med, cong Ac trans Ci fib]
+17.6 +7.9 53 +18 +25 1004.0 995.6
06 23.05 Ю 2 50 км 8/3 600 м
[Cu med, cong Ac As Ci fib]
+20.8 +7.1 41 +23 +28 комфорт 1002.1 993.8
09 23.05 Ю 5 50 км 6/0 600 м
[Ac trans Ci fib]
+19.9 +10.1 53 +21 +22 комфорт 1002.2 993.8 +21.0
12 23.05 Ю 2 20 км 6/0
[Ac trans Ci fib]
+16.3 +10.4 68 +16 +16 1002.7 994.2
15 23.05 Ю 2 20 км 8/0
[Ac trans Ci fib]
+15.0 +9.9 72 +15 +15 1003.2 994.7
18 23.05 ЮЗ 1 20 км 8/3 600 м
[Cu med, cong Ci fib]
+10.0 +9.3 95 +9 +9 1003.2 994.5
21 23.05 ЮЗ 1 20 км 8/6 600 м
[Sc Ac und Ci fib]
+10.0 +9.3 95 +9 +10 1003.2 994.5 +9.8
00 24.05 Ю 3 50 км 10/4 600 м
[Sc Ac As Ci fib]
+16.8 +10.6 67 +17 +19 1003.2 994.7
03 24.05 Ю 5 50 км 10/5 600 м
[Sc Ac As Ci fib]
+22.2 +10.0 46 +24 +24 комфорт 1000.3 992.0
06 24.05 Ю 4 50 км 10/5 600 м
[Sc Ac As Ci fib]
+27.0 +11.0 37 +28 +30 жарко 996.9 988.8
09 24.05 Ю 3 н/о н/о +28.5 +10.0 32 +29 +29 жарко 994.9 986.9
12 24.05 Ю 1 20 км 6/4 600 м
[Sc Ac trans Ci fib]
+19.6 +13.9 70 +22 +22 комфорт 995.1 986.7
15 24.05 СВ 3 20 км 6/0
[Ac trans Ci fib]
+16.8 +13.5 81 +17 +17 994.5 986.5
18 24.05 З 1 20 км 8/3 600 м
[Cu med, cong Ci fib]
+14.6 +12.7 88 +15 +15 995.1 986.7
21 24.05 С 1 н/о н/о +15.1 +12.5 84 +16 +16 996.0 987.6 +13.1
00 25.05 В 2 50 км 8/3 600 м
[Sc Ac trans Ci fib]
+20.5 +13.1 62 +23 +28 комфорт 997.2 988.9
03 25.05 ЮЗ 1 50 км 10/0
[Ac trans Ci fib]
+27.5 +13.5 42 +29 +43 жарко 997.1 989.0
06 25.05 С 2 50 км 10/0
[Ac trans Ci fib]
+31.5 +13.1 33 +33 +40 жарко 996.2 988.2
09 25.05 С 5 50 км 10/0
[Ac trans Ci fib]
+26.1 +14.5 49 +29 +29 жарко 998.2 990.0 +31.9

 

Местоположение метеостанции Екатерино-Никольское (Еврейская автономная область, Россия): широта 47.75 долгота 130.90 высота над уровнем моря 72 м.

В архиве по умолчанию представлена погода в Екатерино-Никольском за последнюю неделю. Архивные данные за месяц целиком и за предыдущие месяцы, начиная с января 2011 года, Вы можете получить, выбрав интересующий диапазон дат из раскрывающегося списка и нажав кнопку "Ввод!".


*Определитесь, кто Вы:
робот инопланетянин человек

Внимание! Время в таблицах - всемирное. Для получения местного времени необходимо прибавить поправку, которая равна 10 ч.

Смотрите также архив погоды в соседних городах и на ближайших метеорологических станциях:

Погода в Биджане (Еврейская автономная область, Россия) (76 км)
Погода в Фуцзине (Хэйлунцзян, Китай) (100 км)
Погода в Ленинское (Еврейская автономная область, Россия) (129 км)
Погода в Облучье (Еврейская автономная область, Россия) (139 км)
Погода в Ичунь (Хэйлунцзян, Китай) (150 км)
Погода в Биробиджане (Еврейская автономная область, Россия) (184 км)
Погода в Баоцине (Хэйлунцзян, Китай) (186 км)
Погода в Архаре (Амурская область, Россия) (197 км)
Погода в Смидовиче (Еврейская автономная область, Россия) (235 км)
Погода в Малиновке (Амурская область, Россия) (237 км)

Пояснения к столбцам:

Ветер - указаны скорость ветра в м/с - средняя за 10 мин, порывы в срок и между сроками (в фигурных скобках) и направление, откуда дует ветер: С - северный, СВ - северо-восточный, В - восточный, ЮВ - юго-восточный, Ю - южный, ЮЗ - юго-западный, З - западный, СЗ - северо-западный.
Видимость - горизонтальная дальность видимости в метрах или километрах. При видимости от 1 до 10 км при отсутствии осадков обычно наблюдается дымка, при ухудшении видимости до 1 км и менее - туман. В сухую погоду видимость может ухудшаться дымом, пылью или мглою.
Явления - указаны атмосферные явления, наблюдавшиеся в срок или в последний час перед сроком; фигурными скобками обозначены явления, наблюдавшиеся между сроками (за 1-3 часа до срока); квадратными скобками обозначены град или гололедные отложения с указанием их диаметра в мм.
Облачность - указаны через наклонную черту общая и нижняя облачность в баллах и высота нижней границы облаков в метрах; квадратными скобками обозначены формы облаков: Ci - перистые, Cs - перисто-слоистые, Cc - перисто-кучевые, Ac - высококучевые, As - высокослоистые, Sc - слоисто-кучевые, Ns - слоисто-дождевые, Cu - кучевые, Cb - кучево-дождевые. Подробнее классификацию облаков см. в Атласе облаков (PDF).
T - Температура воздуха - температура, измеренная на высоте 2 м над землей.
Td - Температура точки росы - температура, при понижении до которой содержащийся в воздухе водяной пар достигнет насыщения.
f - Относительная влажность воздуха - влажноcть воздуха, измеренная на высоте 2 м над землей.
Te - Эффективная температура - температура, которую ощущает одетый по сезону человек в тени. Характеристика душности погоды. При расчете учитывается влияние влажности воздуха и скорости ветра на теплоощущения человека.
Tes - Эффективная температура на солнце - температура, которую ощущает человек, с поправкой на солнечный нагрев. Характеристика знойности погоды. Зависит от высоты солнца над горизонтом, облачности и скорости ветра. Ночью, в пасмурную погоду, а также при ветре 12 м/с и более поправка равна нулю.
P - Атмосферное давление - приведенное к уровню моря атмосферное давление.
Po - Атмосферное давление - измеренное на уровне метеостанции атмосферное давление.
Tmin - Минимальная температура - минимум температуры воздуха на высоте 2 м над землей.
Tmax - Максимальная температура - максимум температуры воздуха на высоте 2 м над землей.
R - Количество осадков - Количество выпавших осадков за период времени, мм. При наведении курсора мыши на число - период времени, за который выпало указанное количество осадков.
R24 - Количество осадков - Количество выпавших осадков за 24 часа, мм.
S - Снежный покров - Высота снежного покрова, см. При наведении курсора мыши на число - состояние снежного покрова и степень покрытия местности в баллах.